Plato, MN

12:17 AM CST on February 20, 2017 (GMT -0600)
Glencoe Municipal

Weather History for KGYL - December, 2013

Change the Weather History Date:

Wednesday, December 18, 2013

  Actual Average (KHCD) Record (KHCD)
Temperature  
Mean Temperature 20 °F -  
Max Temperature 35 °F 26 °F 49 °F (2011)
Min Temperature 4 °F 9 °F -30 °F (2016)
Degree Days  
Heating Degree Days 46    
Moisture  
Dew Point 17 °F    
Average Humidity 75    
Maximum Humidity 86    
Minimum Humidity 61    
Precipitation  
Precipitation 0.00 in - - ()
Sea Level Pressure  
Sea Level Pressure 29.75 in    
Wind  
Wind Speed 6 mph (South)    
Max Wind Speed 13 mph    
Max Gust Speed 18 mph    
Visibility 10 miles    
Events      
Averages and records for this station are not official NWS values.
T = Trace of Precipitation, MM = Missing Value Source: NWS Daily Summary

Daily Weather History Graph

Daily Weather History Graph

Search for Another Location

Airport or City:

Trip Planner

Search our weather history database for the weather conditions in past years. The results will help you decide how hot, cold, wet, or windy it might be!

Date:

Astronomy

Dec. 18, 2013 Rise Set
Actual Time 7:49 AM CST 4:37 PM CST
Civil Twilight 7:15 AM CST 5:10 PM CST
Nautical Twilight 6:38 AM CST 5:47 PM CST
Astronomical Twilight 6:02 AM CST 6:23 PM CST
Moon 6:13 PM CST (12/18) 8:25 AM CST (12/18)
Length of Visible Light 9h 55m
Length of Day
8h 48m
Full, 98% of the Moon is Illuminated
Dec 18
Full
Dec 25
Last Quarter
Jan 1
New
Jan 7
First Quarter
Jan 15
Full

Hourly Weather History & Observations

Time (CST) Temp. Windchill Dew Point Humidity Pressure Visibility Wind Dir Wind Speed Gust Speed Precip Events Conditions
12:13 AM 4.8 °F - 0.5 °F 82% 30.04 in 10.0 mi Calm Calm - N/A   Clear
12:33 AM 5.7 °F - 0.9 °F 80% 30.03 in 10.0 mi Calm Calm - N/A   Scattered Clouds
12:53 AM 6.8 °F -0.1 °F 2.5 °F 82% 30.02 in 10.0 mi ESE 3.5 mph - N/A   Scattered Clouds
1:13 AM 6.8 °F -2.0 °F 2.5 °F 82% 30.01 in 10.0 mi ESE 4.6 mph - N/A   Scattered Clouds
1:33 AM 7.3 °F -1.3 °F 2.7 °F 81% 30.00 in 10.0 mi East 4.6 mph - N/A   Overcast
1:53 AM 10.4 °F 4.0 °F 6.4 °F 84% 29.99 in 10.0 mi East 3.5 mph - N/A   Overcast
2:13 AM 10.4 °F 4.0 °F 6.4 °F 84% 29.98 in 10.0 mi East 3.5 mph - N/A   Mostly Cloudy
2:33 AM 10.0 °F 1.8 °F 5.9 °F 83% 29.98 in 10.0 mi East 4.6 mph - N/A   Scattered Clouds
2:53 AM 9.7 °F 1.4 °F 5.7 °F 84% 29.97 in 10.0 mi East 4.6 mph - N/A   Clear
3:13 AM 10.2 °F -0.6 °F 5.9 °F 83% 29.95 in 10.0 mi ESE 6.9 mph - N/A   Clear
3:33 AM 9.5 °F 1.2 °F 5.4 °F 83% 29.94 in 10.0 mi ESE 4.6 mph - N/A   Clear
3:53 AM 11.8 °F 1.3 °F 7.9 °F 84% 29.92 in 10.0 mi East 6.9 mph - N/A   Clear
4:13 AM 13.1 °F 0.9 °F 9.3 °F 85% 29.90 in 10.0 mi ESE 9.2 mph - N/A   Clear
4:33 AM 14.0 °F 1.2 °F 10.2 °F 85% 29.88 in 10.0 mi East 10.4 mph - N/A   Clear
4:53 AM 14.7 °F 1.4 °F 10.9 °F 85% 29.87 in 10.0 mi ESE 11.5 mph - N/A   Clear
5:13 AM 15.4 °F 3.0 °F 11.8 °F 86% 29.84 in 10.0 mi ESE 10.4 mph - N/A   Clear
5:33 AM 16.2 °F 2.5 °F 12.4 °F 85% 29.82 in 10.0 mi ESE 12.7 mph - N/A   Clear
5:53 AM 15.8 °F 2.7 °F 12.2 °F 86% 29.81 in 10.0 mi ESE 11.5 mph - N/A   Clear
6:13 AM 15.4 °F 3.0 °F 11.8 °F 86% 29.79 in 10.0 mi ESE 10.4 mph - N/A   Clear
6:33 AM 16.7 °F 3.2 °F 13.1 °F 86% 29.78 in 10.0 mi ESE 12.7 mph - N/A   Clear
6:53 AM 18.0 °F 6.9 °F 13.8 °F 84% 29.76 in 10.0 mi ESE 9.2 mph - N/A   Clear
7:13 AM 19.8 °F 9.9 °F 13.8 °F 78% 29.75 in 10.0 mi SE 8.1 mph - N/A   Clear
7:33 AM 21.4 °F 11.9 °F 12.2 °F 68% 29.75 in 10.0 mi SE 8.1 mph - N/A   Clear
7:50 AM 21.6 °F 11.3 °F 11.7 °F 66% 29.73 in 10.0 mi SE 9.2 mph - N/A   Clear
7:51 AM 21.6 °F 11.3 °F 11.7 °F 66% 29.72 in 10.0 mi SE 9.2 mph - N/A   Clear
8:33 AM 23.2 °F 14.1 °F 13.1 °F 65% 29.71 in 10.0 mi SSE 8.1 mph - N/A   Unknown
8:53 AM 26.1 °F 16.8 °F 14.4 °F 61% 29.69 in 10.0 mi South 9.2 mph - N/A   Clear
9:13 AM 27.1 °F 17.5 °F 15.3 °F 61% 29.68 in 10.0 mi SSE 10.4 mph 17.3 mph N/A   Clear
9:34 AM 27.0 °F 17.3 °F 16.0 °F 63% 29.67 in 10.0 mi South 10.4 mph 18.4 mph N/A   Clear
9:53 AM 27.3 °F 18.4 °F 16.7 °F 64% 29.68 in 10.0 mi South 9.2 mph 17.3 mph N/A   Clear
10:13 AM 28.0 °F 19.3 °F 17.6 °F 65% 29.69 in 10.0 mi South 9.2 mph - N/A   Clear
10:33 AM 28.0 °F 19.3 °F 18.5 °F 67% 29.69 in 10.0 mi South 9.2 mph - N/A   Clear
10:53 AM 28.9 °F 21.1 °F 19.2 °F 67% 29.68 in 10.0 mi South 8.1 mph - N/A   Clear
11:13 AM 29.8 °F 23.0 °F 20.3 °F 68% 29.67 in 10.0 mi South 6.9 mph - N/A   Clear
11:33 AM 30.7 °F 22.6 °F 21.0 °F 67% 29.65 in 10.0 mi South 9.2 mph - N/A   Clear
11:53 AM 30.9 °F 22.2 °F 21.6 °F 68% 29.64 in 10.0 mi South 10.4 mph - N/A   Clear
12:13 PM 31.8 °F 23.9 °F 22.5 °F 68% 29.64 in 10.0 mi South 9.2 mph - N/A   Clear
12:33 PM 32.9 °F 24.7 °F 23.5 °F 68% 29.63 in 10.0 mi SSW 10.4 mph - N/A   Clear
12:53 PM 33.6 °F 26.2 °F 23.7 °F 67% 29.63 in 10.0 mi SSW 9.2 mph - N/A   Clear
1:13 PM 33.4 °F 27.3 °F 23.7 °F 68% 29.63 in 10.0 mi SSW 6.9 mph - N/A   Clear
1:33 PM 34.2 °F 28.2 °F 23.9 °F 66% 29.63 in 10.0 mi SSW 6.9 mph - N/A   Clear
1:53 PM 34.0 °F 29.8 °F 24.4 °F 68% 29.63 in 10.0 mi SSW 4.6 mph - N/A   Clear
2:13 PM 35.1 °F 31.0 °F 24.8 °F 66% 29.63 in 10.0 mi SSW 4.6 mph - N/A   Clear
2:33 PM 35.4 °F 30.5 °F 25.0 °F 66% 29.64 in 10.0 mi SW 5.8 mph - N/A   Clear
2:53 PM 35.6 °F 32.8 °F 25.5 °F 67% 29.64 in 10.0 mi SW 3.5 mph - N/A   Clear
3:13 PM 35.1 °F 32.2 °F 25.5 °F 68% 29.64 in 10.0 mi SW 3.5 mph - N/A   Clear
3:33 PM 34.0 °F 31.0 °F 25.5 °F 71% 29.64 in 10.0 mi SSW 3.5 mph - N/A   Clear
3:53 PM 34.0 °F - 25.3 °F 71% 29.64 in 10.0 mi Calm Calm - N/A   Clear
4:13 PM 33.1 °F - 25.2 °F 73% 29.65 in 10.0 mi Calm Calm - N/A   Clear
4:33 PM 31.8 °F 26.2 °F 23.9 °F 73% 29.65 in 10.0 mi SSW 5.8 mph - N/A   Clear
4:53 PM 31.8 °F 27.3 °F 24.4 °F 74% 29.65 in 10.0 mi SSW 4.6 mph - N/A   Clear
5:13 PM 30.0 °F 25.2 °F 23.4 °F 76% 29.65 in 10.0 mi SSW 4.6 mph - N/A   Clear
5:33 PM 30.2 °F 25.4 °F 23.5 °F 76% 29.66 in 10.0 mi SSW 4.6 mph - N/A   Clear
5:53 PM 28.9 °F 22.8 °F 23.0 °F 78% 29.66 in 10.0 mi SSW 5.8 mph - N/A   Clear
6:13 PM 28.0 °F 21.7 °F 22.3 °F 79% 29.66 in 10.0 mi SSW 5.8 mph - N/A   Clear
6:33 PM 28.9 °F - 22.6 °F 77% 29.67 in 10.0 mi Calm Calm - N/A   Clear
6:52 PM 27.5 °F 23.6 °F 22.5 °F 81% 29.67 in 10.0 mi SW 3.5 mph - N/A   Clear
7:13 PM 26.6 °F - 21.9 °F 82% 29.68 in 10.0 mi Calm Calm - N/A   Clear
7:33 PM 26.4 °F 22.4 °F 21.4 °F 81% 29.68 in 10.0 mi SW 3.5 mph - N/A   Clear
7:53 PM 26.4 °F 22.4 °F 21.7 °F 82% 29.68 in 10.0 mi SW 3.5 mph - N/A   Clear
8:13 PM 27.5 °F - 21.7 °F 79% 29.69 in 10.0 mi Calm Calm - N/A   Clear
8:33 PM 29.7 °F 24.7 °F 23.0 °F 76% 29.70 in 10.0 mi WSW 4.6 mph - N/A   Clear
8:53 PM 29.7 °F 22.8 °F 22.8 °F 76% 29.70 in 10.0 mi West 6.9 mph - N/A   Clear
9:13 PM 29.5 °F 21.8 °F 23.4 °F 78% 29.71 in 10.0 mi West 8.1 mph - N/A   Clear
9:33 PM 32.0 °F 23.6 °F 23.9 °F 72% 29.72 in 10.0 mi WNW 10.4 mph - N/A   Clear
9:53 PM 31.6 °F 24.4 °F 23.4 °F 71% 29.73 in 10.0 mi WNW 8.1 mph - N/A   Clear
10:13 PM 32.0 °F 23.6 °F 23.9 °F 72% 29.74 in 10.0 mi WNW 10.4 mph - N/A   Clear
10:33 PM 31.5 °F 24.2 °F 23.4 °F 72% 29.75 in 10.0 mi WNW 8.1 mph - N/A   Clear
10:53 PM 30.9 °F 22.8 °F 23.0 °F 72% 29.76 in 10.0 mi NW 9.2 mph - N/A   Clear
11:14 PM 30.0 °F 20.5 °F 22.1 °F 72% 29.77 in 10.0 mi NW 11.5 mph - N/A   Clear
11:33 PM 29.1 °F 19.4 °F 21.4 °F 73% 29.78 in 10.0 mi NW 11.5 mph - N/A   Clear
11:53 PM 28.2 °F 18.9 °F 20.7 °F 73% 29.79 in 10.0 mi NW 10.4 mph - N/A   Clear